This is the latest recevied weather packets stored in our database for station/object SQ9SMC-13. If no packets are shown the sender has not sent any weather packets the latest 10 day(s).
| Time | Temp. | Humidity | Pressure | Rain* | Wind** | Luminosity | Snow |
|---|---|---|---|---|---|---|---|
| 1777134005 | 18.33° C | 35% | 1011.1 hPa | 0 mm | - | 60 W/m² | - |
| 1777133704 | 18.33° C | 35% | 1011.1 hPa | 0 mm | - | 77 W/m² | - |
| 1777133403 | 18.33° C | 35% | 1011.2 hPa | 0 mm | - | 93 W/m² | - |
| 1777133102 | 18.89° C | 34% | 1011.3 hPa | 0 mm | - | 114 W/m² | - |
| 1777132802 | 18.89° C | 35% | 1011.3 hPa | 0 mm | - | 119 W/m² | - |
| 1777132503 | 18.33° C | 34% | 1011.4 hPa | 0 mm | - | 133 W/m² | - |
| 1777132203 | 18.89° C | 33% | 1011.3 hPa | 0 mm | - | 142 W/m² | - |
| 1777131903 | 18.89° C | 35% | 1011.5 hPa | 0 mm | - | 152 W/m² | - |
| 1777131603 | 18.89° C | 33% | 1011.5 hPa | 0 mm | - | 159 W/m² | - |
| 1777131303 | 18.89° C | 33% | 1011.5 hPa | 0 mm | - | 171 W/m² | - |
| 1777131002 | 19.44° C | 33% | 1011.2 hPa | 0 mm | - | 183 W/m² | - |
| 1777130703 | 19.44° C | 32% | 1011.4 hPa | 0 mm | - | 196 W/m² | - |
| 1777130402 | 18.89° C | 32% | 1011.2 hPa | 0 mm | - | 208 W/m² | - |
| 1777130104 | 18.89° C | 32% | 1011.4 hPa | 0 mm | - | 222 W/m² | - |
| 1777129802 | 19.44° C | 30% | 1011.5 hPa | 0 mm | - | 234 W/m² | - |
| 1777129503 | 19.44° C | 30% | 1011.4 hPa | 0 mm | - | 248 W/m² | - |
| 1777129205 | 19.44° C | 30% | 1011.5 hPa | 0 mm | - | 259 W/m² | - |
| 1777128904 | 19.44° C | 29% | 1011.5 hPa | 0 mm | - | 271 W/m² | - |
| 1777128605 | 18.89° C | 29% | 1011.2 hPa | 0 mm | - | 284 W/m² | - |
| 1777128303 | 20° C | 29% | 1011.3 hPa | 0 mm | - | 294 W/m² | - |
| 1777128005 | 19.44° C | 27% | 1011.3 hPa | 0 mm | - | 309 W/m² | - |
| 1777127704 | 19.44° C | 28% | 1011.4 hPa | 0 mm | - | 318 W/m² | - |
| 1777127405 | 19.44° C | 28% | 1011.3 hPa | 0 mm | - | 333 W/m² | - |
| 1777127105 | 20° C | 26% | 1011.8 hPa | 0 mm | - | 346 W/m² | - |
| 1777126802 | 19.44° C | 28% | 1011.4 hPa | 0 mm | - | 357 W/m² | - |
* Rain latest hour (hover to see other rain measurements)
** Current wind speed in m/s (hover to see current wind gust speed)